TimeEDT,TemperatureF,Dew PointF,Humidity,Sea Level PressureIn,VisibilityMPH,Wind Direction,Wind SpeedMPH,Gust SpeedMPH,PrecipitationIn,Events,Conditions,WindDirDegrees,DateUTC
12:15 AM,33.8,8.6,35,30.01,10.0,West,11.5,20.7,N/A,,Clear,260,2013-03-20 04:15:00
12:35 AM,33.8,8.6,35,30.01,10.0,West,13.8,20.7,N/A,,Clear,260,2013-03-20 04:35:00
12:55 AM,33.8,8.6,35,30.01,10.0,West,12.7,28.8,N/A,,Clear,260,2013-03-20 04:55:00
1:15 AM,32.0,10.4,41,30.01,10.0,West,16.1,24.2,N/A,,Clear,260,2013-03-20 05:15:00
1:35 AM,32.0,10.4,41,30.01,10.0,West,13.8,23.0,N/A,,Clear,260,2013-03-20 05:35:00
1:55 AM,32.0,10.4,41,30.01,10.0,WSW,18.4,25.3,N/A,,Clear,250,2013-03-20 05:55:00
2:15 AM,32.0,10.4,41,30.01,10.0,West,15.0,20.7,N/A,,Clear,260,2013-03-20 06:15:00
2:55 AM,32.0,10.4,41,30.01,10.0,West,10.4,20.7,N/A,,Clear,260,2013-03-20 06:55:00
3:15 AM,32.0,10.4,41,30.01,10.0,WSW,11.5,16.1,N/A,,Clear,240,2013-03-20 07:15:00
3:35 AM,32.0,12.2,44,30.00,10.0,SW,10.4,16.1,N/A,,Clear,230,2013-03-20 07:35:00
3:55 AM,32.0,12.2,44,30.00,10.0,WSW,9.2,-,N/A,,Clear,240,2013-03-20 07:55:00
4:15 AM,32.0,12.2,44,30.00,10.0,WSW,8.1,-,N/A,,Clear,240,2013-03-20 08:15:00
4:35 AM,32.0,12.2,44,30.00,10.0,SW,6.9,-,N/A,,Partly Cloudy,220,2013-03-20 08:35:00
4:55 AM,32.0,12.2,44,29.99,10.0,SW,9.2,-,N/A,,Partly Cloudy,230,2013-03-20 08:55:00
5:15 AM,30.2,12.2,47,29.99,10.0,SW,10.4,-,N/A,,Clear,230,2013-03-20 09:15:00
5:35 AM,32.0,12.2,44,29.99,10.0,SW,10.4,-,N/A,,Clear,230,2013-03-20 09:35:00
5:55 AM,30.2,12.2,47,29.99,10.0,WSW,8.1,-,N/A,,Clear,240,2013-03-20 09:55:00
6:15 AM,30.2,12.2,47,30.00,10.0,WSW,9.2,16.1,N/A,,Clear,240,2013-03-20 10:15:00
6:35 AM,30.2,12.2,47,30.00,10.0,SW,11.5,-,N/A,,Clear,230,2013-03-20 10:35:00
6:55 AM,30.2,12.2,47,30.01,10.0,WSW,12.7,18.4,N/A,,Clear,250,2013-03-20 10:55:00
7:15 AM,30.2,12.2,47,30.01,10.0,WSW,10.4,17.3,N/A,,Clear,250,2013-03-20 11:15:00
7:35 AM,30.2,12.2,47,30.01,10.0,WSW,8.1,-,N/A,,Partly Cloudy,240,2013-03-20 11:35:00
7:55 AM,30.2,14.0,51,30.01,10.0,SW,4.6,-,N/A,,Clear,230,2013-03-20 11:55:00
8:15 AM,32.0,14.0,48,30.01,10.0,SW,8.1,-,N/A,,Clear,230,2013-03-20 12:15:00
8:35 AM,32.0,14.0,48,30.01,10.0,WSW,10.4,-,N/A,,Clear,240,2013-03-20 12:35:00
8:55 AM,32.0,14.0,48,30.00,10.0,SW,12.7,-,N/A,,Clear,220,2013-03-20 12:55:00
9:15 AM,32.0,14.0,48,30.00,10.0,SW,10.4,-,N/A,,Clear,220,2013-03-20 13:15:00
9:35 AM,32.0,14.0,48,30.00,10.0,SW,10.4,-,N/A,,Clear,230,2013-03-20 13:35:00
9:55 AM,33.8,14.0,44,30.00,10.0,SW,11.5,-,N/A,,Clear,230,2013-03-20 13:55:00
10:15 AM,33.8,14.0,44,29.99,10.0,SW,16.1,20.7,N/A,,Clear,220,2013-03-20 14:15:00
10:35 AM,33.8,15.8,48,29.98,10.0,SW,17.3,20.7,N/A,,Clear,220,2013-03-20 14:35:00
10:55 AM,35.6,15.8,44,29.97,10.0,SW,15.0,19.6,N/A,,Clear,230,2013-03-20 14:55:00
11:15 AM,35.6,15.8,44,29.96,10.0,SW,13.8,24.2,N/A,,Clear,230,2013-03-20 15:15:00
11:35 AM,37.4,15.8,41,29.95,10.0,SW,11.5,18.4,N/A,,Scattered Clouds,230,2013-03-20 15:35:00
11:55 AM,37.4,14.0,38,29.93,10.0,SW,15.0,28.8,N/A,,Scattered Clouds,220,2013-03-20 15:55:00
12:15 PM,39.2,14.0,36,29.92,10.0,SW,16.1,32.2,N/A,,Partly Cloudy,230,2013-03-20 16:15:00
12:35 PM,39.2,12.2,33,29.90,10.0,SW,24.2,34.5,N/A,,Scattered Clouds,230,2013-03-20 16:35:00
12:55 PM,41.0,14.0,33,29.90,10.0,West,20.7,28.8,N/A,,Partly Cloudy,260,2013-03-20 16:55:00
1:15 PM,42.8,15.8,34,29.89,10.0,West,13.8,23.0,N/A,,Partly Cloudy,260,2013-03-20 17:15:00
1:35 PM,42.8,14.0,31,29.88,10.0,West,15.0,27.6,N/A,,Scattered Clouds,260,2013-03-20 17:35:00
1:55 PM,42.8,14.0,31,29.87,10.0,West,17.3,25.3,N/A,,Scattered Clouds,270,2013-03-20 17:55:00
2:15 PM,42.8,15.8,34,29.85,10.0,SW,23.0,31.1,N/A,,Scattered Clouds,230,2013-03-20 18:15:00
2:35 PM,42.8,14.0,31,29.85,10.0,West,20.7,39.1,N/A,,Partly Cloudy,260,2013-03-20 18:35:00
2:55 PM,42.8,14.0,31,29.83,10.0,West,21.9,31.1,N/A,,Partly Cloudy,260,2013-03-20 18:55:00
3:15 PM,41.0,14.0,33,29.82,10.0,SW,18.4,26.5,N/A,,Partly Cloudy,230,2013-03-20 19:15:00
3:35 PM,41.0,14.0,33,29.82,10.0,WSW,16.1,21.9,N/A,,Partly Cloudy,250,2013-03-20 19:35:00
3:55 PM,41.0,15.8,36,29.81,10.0,SW,13.8,27.6,N/A,,Clear,230,2013-03-20 19:55:00
4:15 PM,42.8,15.8,34,29.79,10.0,SW,17.3,27.6,N/A,,Partly Cloudy,230,2013-03-20 20:15:00
4:35 PM,41.0,14.0,33,29.79,10.0,WSW,15.0,28.8,N/A,,Partly Cloudy,250,2013-03-20 20:35:00
4:55 PM,41.0,17.6,39,29.79,10.0,West,16.1,28.8,N/A,,Partly Cloudy,270,2013-03-20 20:55:00
5:15 PM,41.0,17.6,39,29.78,10.0,West,12.7,25.3,N/A,,Partly Cloudy,260,2013-03-20 21:15:00
5:55 PM,39.2,17.6,42,29.78,10.0,West,9.2,-,N/A,,Scattered Clouds,280,2013-03-20 21:55:00
6:15 PM,39.2,19.4,45,29.78,10.0,West,10.4,17.3,N/A,,Partly Cloudy,270,2013-03-20 22:15:00
6:35 PM,37.4,21.2,52,29.79,10.0,WNW,11.5,21.9,N/A,,Partly Cloudy,290,2013-03-20 22:35:00
6:55 PM,37.4,21.2,52,29.79,10.0,WNW,8.1,20.7,N/A,,Clear,300,2013-03-20 22:55:00
7:15 PM,37.4,21.2,52,29.80,10.0,West,11.5,20.7,N/A,,Partly Cloudy,280,2013-03-20 23:15:00
7:35 PM,35.6,24.8,65,29.80,10.0,West,10.4,21.9,N/A,,Scattered Clouds,270,2013-03-20 23:35:00
7:55 PM,35.6,23.0,60,29.81,10.0,NW,6.9,16.1,N/A,,Scattered Clouds,320,2013-03-20 23:55:00
8:15 PM,33.8,21.2,60,29.81,10.0,NNW,11.5,17.3,N/A,,Partly Cloudy,330,2013-03-21 00:15:00
8:35 PM,33.8,21.2,60,29.82,10.0,NNW,10.4,18.4,N/A,,Partly Cloudy,340,2013-03-21 00:35:00
8:55 PM,33.8,19.4,56,29.82,10.0,NNW,10.4,17.3,N/A,,Partly Cloudy,330,2013-03-21 00:55:00
9:15 PM,33.8,17.6,52,29.83,10.0,NNW,13.8,17.3,N/A,,Scattered Clouds,340,2013-03-21 01:15:00
9:35 PM,32.0,17.6,55,29.84,10.0,NW,10.4,21.9,N/A,,Scattered Clouds,310,2013-03-21 01:35:00
9:55 PM,32.0,15.8,51,29.85,10.0,NW,12.7,18.4,N/A,,Scattered Clouds,320,2013-03-21 01:55:00
10:15 PM,32.0,17.6,55,29.86,10.0,WNW,13.8,18.4,N/A,,Mostly Cloudy,300,2013-03-21 02:15:00
10:35 PM,32.0,14.0,48,29.86,10.0,West,12.7,19.6,N/A,,Mostly Cloudy,280,2013-03-21 02:35:00
10:55 PM,30.2,14.0,51,29.86,10.0,West,9.2,-,N/A,,Mostly Cloudy,280,2013-03-21 02:55:00
11:15 PM,30.2,14.0,51,29.87,10.0,NNW,12.7,18.4,N/A,,Partly Cloudy,330,2013-03-21 03:15:00
11:35 PM,30.2,14.0,51,29.87,10.0,NW,9.2,-,N/A,,Clear,320,2013-03-21 03:35:00
11:55 PM,28.4,14.0,55,29.87,10.0,WNW,9.2,17.3,N/A,,Scattered Clouds,300,2013-03-21 03:55:00